OPS 4682 DEB, 38408

Orbit data source: Space-Track

OPS 4682 DEB, 38408 is space debris in LEO originally from a launch on Sat, 03 Apr 1965 UTC launched from the Air Force Western Test Range (AFWTR). Debris objects in space refer to the collection of defunct objects orbiting the Earth. Examples of debris include non-operational satellites, rocket bodies, and fragments generated from explosions, collisions, or faulty payload assembly.

Loading next visibility...
Identifier
38408, 1965-027DM
Orbit
LEO
Country
Flag of USUS
Related business
Manufacturer
Unknown
Mission
Spacecraft
Bus & Motor
Unknown
Mass
Unknown
Launch date (UTC)
1965-04-03 (61 years ago)
Launch vehicle
Unknown
Launch site
Air Force Western Test Range (AFWTR)
Object type
Payload
Rocket body
Debris
Shape & HBR
Unknown shape, 0.1 m
Radar Cross Section
Small (<0.1 m²)

Expand to show TLE details & history
Last TLE update: 1 day ago

TLE from 1 day ago
0 OPS 4682 DEB
1 38408U 65027DM  25348.33662632 -.00000071  00000-0 -25007-3 0  9993
2 38408  90.2778  10.6012 0042256 298.1854  61.5004 13.02062988581159
Epoch: 2025-12-14T08:04Z
TLE epoch observation values (Epoch: 2025-12-14T08:04:44.514Z)
Latitude
-0.00004°
Longitude
166.16472°
Altitude
1,241.615 km
Speed
7.241 km/s
True Right ascension
00h 42m 24s
True Declination
0° 00' 00"
Sunlit
Object was in daylight at epoch
Visualization orbit readout
Latitude
Unknown
Longitude
Unknown
Altitude
Unknown
Speed
Unknown
Apparent Right ascension
Unknown
Apparent Declination
Unknown
Sunlit
N/A
Visualization observer readout
Local Sidereal Time
16:53:43
Azimuth
Unknown
Elevation
Unknown
Doppler factor
Unknown
Orbital elements
Apogee altitude
1,283.377 km
Perigee altitude
1,218.9 km
Semi-major axis
7,629.275 km
Eccentricity
0.00423
Inclination
90.2778°
RAAN
10.6012°
Arg. of periapsis
298.1854°
True anomaly
61.92701°
Mean anomaly
61.5004°
Eccentric anomaly
61.7136°
Mean motion
3.257 °/min
Orbital period
110.53 mins
BSTAR
-0.00025007
Loading maneuver chart data...
Computing Atmospheric mass density...
Loading historical data...
Loading historical data...
Loading historical data...
Loading historical data...
Loading historical data...
Loading historical data...
Loading historical data...

Documentation

Showing up to 5 results
|